Wind_Speed
5 8 9 6 9 13 14 14 15 15 16 19 19 16 14 13 11 11 10 11 10 10 11 13 14 15 15 13 12 9 10 12 15 15 14 14 14 14 14 16 13 13 14
6 10 8 8 6 11 13 13 13 14 16 17 19 19 16 15 14 13 12 12 11 11 11 11 12 12 12 11 10 11 12 13 13 14 13 14 12 12 14 16 14 14 14
4 6 7 7 3 10 12 14 13 11 15 16 17 18 17 16 15 14 14 12 11 11 12 12 10 10 11 12 13 13 14 14 14 13 13 11 12 12 14 17 16 16 16
6 5 2 2 3 3 11 14 14 13 14 16 17 17 17 16 16 15 14 12 12 12 13 14 14 12 12 14 14 14 14 14 14 14 13 12 10 13 18 18 16 15 14
7 6 6 4 4 3 7 14 16 16 16 15 17 19 18 17 16 16 14 13 13 12 11 12 15 15 15 15 16 14 14 14 13 12 12 11 19 19 18 15 13 11 10
8 10 9 9 7 7 8 12 16 18 18 18 16 18 20 19 18 16 15 17 15 13 8 9 13 18 17 16 16 14 13 12 12 13 16 18 17 14 14 11 7 5 4
10 10 10 8 9 12 12 13 15 19 20 20 18 18 19 22 20 18 20 20 19 14 9 6 11 18 19 18 17 15 14 13 11 14 18 16 12 9 9 7 3 1 2
10 11 12 10 7 11 16 17 14 19 20 21 21 19 19 22 22 21 22 22 22 16 11 7 9 17 21 19 17 15 14 15 14 12 11 12 9 6 3 2 3 4 4
14 13 14 12 12 14 15 19 18 16 21 23 24 23 21 21 23 23 24 24 24 17 12 8 8 17 22 21 20 16 16 15 14 12 9 9 9 7 4 3 2 5 9
15 16 17 16 15 13 17 19 22 21 19 23 24 25 24 24 25 25 26 27 26 20 15 12 10 17 22 22 22 19 19 15 14 12 9 8 5 4 4 6 9 10 10
17 18 18 18 16 15 15 20 21 24 24 21 25 26 26 25 26 26 27 28 28 23 18 15 13 18 22 23 23 21 18 15 13 12 9 9 7 7 13 14 13 13 15
18 17 18 19 19 16 15 19 23 23 26 26 25 28 28 28 28 31 30 29 29 25 22 18 16 20 24 23 23 22 19 18 17 15 13 8 9 14 17 16 16 16 17
17 19 19 20 21 19 17 16 22 25 26 28 28 30 30 30 30 34 33 27 30 28 25 21 20 23 25 25 23 22 21 20 17 16 14 11 8 20 17 16 15 18 18
16 19 20 23 24 21 18 17 18 25 27 28 31 31 33 32 34 38 37 31 29 29 26 24 25 26 27 26 24 22 22 19 16 15 13 15 13 21 16 17 13 15 18
17 18 17 19 21 22 21 18 18 21 26 28 29 31 34 35 36 39 40 34 30 30 27 26 27 29 30 29 26 25 23 20 19 15 11 12 16 18 17 15 17 14 17
18 18 16 18 19 21 21 21 19 20 24 25 27 30 34 37 37 40 41 37 32 31 30 29 29 32 32 32 29 26 23 21 18 17 13 13 21 20 18 14 16 13 15
16 18 16 15 15 18 21 22 21 20 22 23 21 24 31 37 41 46 44 41 35 34 33 30 29 30 32 32 29 28 25 22 20 16 12 24 24 22 19 18 17 14 13
16 17 15 15 15 18 21 21 21 20 22 25 25 28 29 38 28 34 44 47 39 38 36 33 32 33 38 36 32 29 26 23 20 17 13 25 24 22 18 17 18 15 14
17 16 17 17 19 19 21 23 23 22 23 27 31 34 33 37 32 22 30 43 42 41 40 35 34 35 43 39 33 27 28 25 22 17 16 21 25 23 19 17 17 16 15
18 18 18 17 18 20 24 26 26 26 26 27 31 35 36 37 38 38 37 30 42 49 44 39 35 38 41 39 33 31 29 25 20 17 18 19 21 21 21 19 17 17 16
16 17 18 16 14 17 22 26 27 29 30 30 31 32 34 35 35 29 38 40 43 47 48 44 40 43 42 40 33 33 28 25 21 17 18 19 22 23 19 17 13 13 13
17 17 16 15 16 18 21 25 28 26 29 30 30 32 33 33 32 29 36 37 39 47 47 49 48 50 43 40 41 38 25 24 21 20 21 21 21 21 20 18 16 15 14
17 14 14 15 17 19 19 21 25 30 30 27 26 26 28 28 26 31 36 44 42 49 50 53 53 52 48 45 44 37 19 12 28 25 24 23 23 22 22 20 19 17 16
15 12 12 17 17 17 16 24 27 30 32 30 22 22 25 25 27 29 37 43 46 45 53 53 56 51 50 52 45 32 31 21 22 17 27 25 23 21 20 20 20 19 17
11 10 12 16 16 13 18 22 27 30 26 21 24 24 25 26 23 34 36 45 45 48 50 49 56 52 47 49 49 36 28 18 23 17 26 31 28 25 22 22 20 19 18
9 9 13 17 17 15 18 19 22 29 26 24 23 21 25 29 24 22 37 46 51 47 43 54 54 52 46 45 43 41 36 27 23 21 17 34 34 29 25 22 22 21 20
Wind_Direction
92 92 77 116 189 189 189 190 195 201 197 191 182 187 184 190 191 189 184 178 175 166 156 147 135 142 150 151 148 145 146 134 130 125 120 123 114 103 107 111 104 103 101
97 88 80 74 186 197 193 192 197 204 211 202 192 192 195 199 200 196 189 184 176 170 163 160 156 155 157 155 150 142 138 138 137 135 135 128 116 110 113 119 111 103 100
89 92 87 65 60 207 200 201 202 198 204 203 193 194 197 200 200 195 191 188 186 177 164 152 148 150 154 148 145 143 142 141 140 140 138 139 132 124 122 124 123 115 110
54 45 84 117 71 208 218 209 209 199 197 199 198 195 201 203 201 198 194 195 192 185 177 164 163 158 152 150 149 148 146 144 145 144 142 137 136 135 130 127 123 130 123
326 335 333 309 218 181 224 222 215 211 202 200 200 201 203 202 202 200 199 190 178 168 166 166 172 162 154 150 147 145 141 142 143 140 151 136 129 133 139 134 115 115 114
313 325 317 287 259 218 216 226 225 217 213 207 204 208 208 209 208 204 195 190 176 163 161 163 167 166 161 165 163 162 152 149 148 126 136 140 141 147 148 134 127 126 124
311 318 318 298 235 230 224 224 227 226 221 219 215 217 218 214 212 206 201 192 183 178 169 172 171 172 172 180 176 169 167 161 163 146 144 148 149 161 153 144 143 175 205
317 309 305 297 277 247 233 231 232 227 228 225 223 222 225 214 212 209 204 201 192 190 182 194 188 177 177 186 180 174 168 169 186 172 171 170 170 182 194 212 259 262 240
295 295 298 299 280 263 246 238 234 238 231 230 230 229 226 218 216 216 213 205 196 200 205 214 217 186 184 189 186 183 176 175 181 188 193 204 223 232 225 206 192 137 120
285 286 289 293 292 293 245 241 238 236 240 234 233 231 227 223 222 218 212 207 207 213 220 225 231 197 190 194 190 190 188 193 198 197 200 195 208 249 213 145 115 109 103
288 286 284 291 292 291 265 243 241 238 234 237 235 233 229 227 222 216 212 208 212 219 224 228 231 203 192 196 196 194 192 183 199 186 201 216 223 254 136 131 140 126 118
291 290 285 285 288 288 279 257 245 241 238 235 232 231 230 229 226 214 217 212 216 219 222 224 224 200 194 198 197 198 191 186 197 203 195 218 236 154 144 150 144 136 129
290 288 286 282 283 285 286 270 251 244 242 240 234 230 230 230 226 217 217 220 215 216 218 217 207 202 196 198 201 196 193 195 202 203 201 222 210 144 160 159 158 152 142
291 294 288 277 271 273 279 282 265 251 245 242 240 235 229 230 227 219 219 225 220 217 216 216 205 199 197 200 204 198 191 200 203 201 221 231 176 160 164 170 160 162 155
294 303 294 282 268 264 267 273 277 261 252 246 244 240 235 231 228 228 219 226 226 220 216 211 202 195 197 198 203 198 193 200 199 207 229 198 143 161 173 172 174 171 170
298 303 293 281 266 255 259 269 277 272 254 250 243 242 239 231 228 229 229 225 227 218 214 211 209 199 197 198 198 198 199 205 205 218 225 187 167 169 178 169 165 184 192
297 298 300 282 263 252 252 263 275 269 259 248 245 236 241 222 228 226 225 228 224 217 212 209 208 196 196 196 197 193 202 203 207 216 224 176 176 183 188 169 169 165 154
299 290 288 279 263 255 253 262 269 263 258 249 236 232 223 226 213 216 216 227 221 215 210 207 207 198 192 194 192 193 200 202 210 214 224 188 181 184 184 183 174 174 161
297 285 281 279 267 260 257 256 260 260 262 252 241 237 238 239 226 232 230 217 220 213 208 206 201 199 188 191 193 193 204 205 208 212 218 190 184 184 181 181 176 173 166
293 283 278 274 263 256 253 253 257 261 263 256 247 243 240 241 251 251 240 245 218 207 204 201 198 195 192 189 192 201 196 197 208 217 213 199 182 179 181 182 180 174 168
295 284 278 274 267 252 253 256 259 263 266 258 252 253 249 245 245 243 247 243 226 208 204 197 196 188 189 192 189 182 184 195 204 209 213 201 184 186 190 198 196 187 180
306 288 280 277 268 262 257 258 266 268 265 258 257 256 251 248 244 239 238 232 225 207 206 196 196 187 196 192 192 175 170 182 192 200 203 202 198 198 202 206 208 203 200
307 284 283 286 273 261 260 262 261 262 261 256 256 250 249 243 246 237 233 223 213 204 208 198 195 192 188 189 197 184 160 183 188 196 201 206 211 212 214 214 212 209 208
303 277 285 291 286 268 279 277 268 256 256 257 254 243 241 245 245 248 231 220 213 208 209 203 197 198 196 189 194 198 196 198 178 186 202 205 209 212 213 213 212 213 211
306 286 281 288 275 275 295 282 273 250 249 253 253 239 229 229 233 233 226 218 209 203 205 206 201 202 201 199 193 190 194 197 194 188 198 204 210 213 216 219 218 215 214
325 296 285 287 279 266 294 285 268 259 244 250 244 251 236 223 225 224 217 212 211 202 204 209 208 206 202 204 201 207 209 199 196 202 202 207 210 210 211 215 216 217 217
Height
1508 1508 1508 1509 1510 1512 1513 1514 1516 1517 1518 1520 1521 1523 1523 1525 1525 1526 1527 1528 1529 1529 1530 1532 1533 1534 1536 1537 1537 1537 1538 1539 1540 1541 1542 1542 1543 1544 1545 1546 1547 1547 1548
1508 1508 1509 1509 1510 1512 1513 1514 1516 1517 1518 1519 1521 1523 1524 1525 1526 1527 1528 1529 1530 1530 1531 1532 1533 1535 1536 1537 1538 1539 1540 1541 1542 1543 1544 1545 1545 1546 1547 1548 1549 1550 1550
1507 1507 1508 1509 1510 1511 1513 1514 1515 1516 1518 1519 1521 1523 1525 1526 1527 1528 1529 1529 1530 1531 1532 1533 1535 1536 1537 1538 1539 1540 1541 1543 1544 1545 1546 1547 1548 1548 1549 1550 1551 1552 1552
1508 1508 1508 1509 1510 1511 1513 1514 1515 1516 1518 1520 1521 1522 1524 1525 1527 1528 1529 1530 1531 1531 1532 1534 1536 1537 1538 1539 1540 1541 1543 1544 1545 1546 1547 1548 1549 1550 1551 1552 1553 1554 1554
1507 1508 1509 1509 1509 1511 1512 1513 1514 1516 1517 1520 1521 1523 1524 1525 1526 1527 1529 1530 1531 1532 1533 1534 1536 1538 1539 1541 1542 1543 1545 1546 1547 1548 1549 1550 1551 1552 1552 1553 1554 1555 1556
1507 1506 1506 1508 1509 1509 1510 1511 1513 1515 1517 1518 1520 1522 1523 1525 1526 1527 1529 1530 1531 1532 1534 1535 1536 1539 1541 1542 1543 1545 1546 1548 1549 1550 1550 1552 1552 1553 1553 1555 1556 1557 1557
1507 1506 1506 1505 1507 1507 1508 1510 1511 1514 1515 1517 1519 1520 1522 1524 1525 1526 1528 1529 1531 1532 1534 1536 1537 1539 1542 1543 1544 1546 1548 1549 1550 1552 1553 1553 1554 1555 1555 1556 1557 1557 1557
1505 1505 1505 1505 1505 1506 1506 1508 1509 1510 1513 1515 1517 1519 1520 1522 1524 1525 1527 1528 1530 1531 1533 1536 1538 1539 1542 1543 1545 1547 1549 1550 1551 1553 1554 1554 1555 1556 1557 1557 1557 1557 1556
1503 1503 1504 1503 1503 1503 1504 1505 1506 1508 1510 1512 1514 1516 1518 1520 1521 1523 1525 1527 1529 1530 1532 1535 1538 1539 1541 1543 1545 1547 1550 1551 1552 1554 1555 1556 1557 1557 1557 1557 1557 1557 1557
1501 1501 1501 1501 1500 1500 1500 1502 1503 1505 1507 1508 1511 1513 1515 1518 1520 1520 1523 1526 1527 1529 1531 1534 1537 1539 1540 1543 1545 1547 1549 1551 1553 1554 1554 1556 1557 1557 1558 1558 1558 1559 1559
1497 1497 1497 1497 1497 1497 1498 1499 1500 1501 1503 1505 1507 1510 1512 1514 1517 1519 1520 1523 1525 1527 1530 1532 1535 1537 1540 1542 1544 1546 1548 1551 1552 1553 1554 1555 1556 1557 1558 1559 1560 1561 1561
1494 1494 1493 1493 1493 1494 1494 1495 1496 1497 1499 1500 1502 1505 1508 1511 1513 1516 1518 1521 1523 1525 1527 1530 1532 1535 1538 1541 1543 1546 1548 1550 1552 1553 1555 1556 1556 1557 1559 1561 1561 1562 1563
1491 1489 1489 1489 1489 1489 1490 1491 1491 1493 1495 1496 1498 1500 1503 1506 1509 1511 1514 1516 1519 1521 1523 1526 1529 1531 1536 1539 1542 1545 1547 1549 1551 1553 1554 1555 1556 1558 1559 1561 1562 1562 1564
1487 1486 1484 1483 1484 1485 1486 1487 1487 1488 1489 1491 1493 1495 1498 1500 1504 1506 1509 1513 1515 1517 1520 1522 1525 1528 1533 1537 1541 1544 1546 1549 1550 1552 1554 1554 1555 1558 1560 1561 1562 1563 1565
1483 1482 1480 1479 1478 1480 1481 1483 1483 1483 1484 1486 1488 1490 1493 1495 1498 1502 1503 1508 1511 1514 1517 1519 1522 1526 1530 1534 1539 1543 1545 1547 1550 1552 1553 1554 1557 1559 1560 1560 1562 1563 1565
1479 1478 1476 1474 1474 1475 1477 1478 1478 1478 1479 1480 1482 1484 1486 1488 1492 1496 1499 1502 1507 1510 1513 1517 1518 1522 1527 1532 1536 1541 1544 1546 1549 1551 1552 1554 1557 1558 1559 1560 1562 1563 1563
1475 1473 1472 1471 1470 1471 1473 1473 1474 1474 1474 1475 1477 1479 1481 1482 1485 1490 1493 1496 1501 1505 1509 1514 1518 1520 1526 1530 1534 1538 1542 1545 1547 1549 1551 1552 1555 1558 1559 1560 1561 1562 1563
1470 1468 1467 1466 1466 1467 1468 1469 1469 1469 1470 1471 1473 1475 1476 1478 1478 1480 1484 1491 1495 1500 1505 1509 1514 1516 1521 1526 1530 1535 1539 1543 1547 1548 1549 1551 1553 1556 1559 1560 1560 1562 1563
1465 1463 1462 1461 1461 1461 1462 1463 1464 1464 1464 1466 1468 1470 1471 1473 1474 1478 1481 1483 1490 1492 1499 1504 1510 1513 1516 1522 1528 1533 1537 1542 1545 1547 1548 1550 1552 1554 1557 1558 1560 1561 1563
1459 1457 1457 1456 1456 1456 1457 1457 1458 1458 1459 1460 1461 1463 1466 1467 1468 1470 1477 1478 1482 1486 1490 1499 1505 1511 1514 1520 1526 1531 1535 1539 1543 1546 1547 1548 1550 1553 1555 1557 1559 1560 1561
1454 1452 1451 1451 1451 1451 1451 1452 1452 1452 1453 1453 1454 1456 1458 1460 1462 1465 1467 1472 1474 1479 1482 1491 1500 1506 1512 1517 1522 1528 1533 1537 1540 1543 1546 1547 1549 1552 1555 1557 1558 1560 1561
1449 1447 1446 1446 1446 1446 1447 1447 1447 1447 1446 1446 1447 1447 1449 1452 1455 1459 1460 1462 1466 1474 1484 1484 1492 1499 1506 1512 1515 1522 1530 1535 1537 1540 1543 1546 1548 1551 1553 1555 1558 1559 1561
1444 1442 1442 1441 1441 1441 1441 1442 1441 1441 1440 1440 1440 1440 1442 1444 1448 1451 1455 1459 1458 1465 1477 1481 1486 1491 1496 1504 1511 1515 1521 1525 1531 1536 1540 1543 1546 1548 1551 1553 1556 1558 1559
1439 1438 1438 1438 1437 1437 1438 1436 1434 1432 1432 1434 1435 1436 1438 1439 1442 1443 1449 1455 1456 1460 1469 1481 1483 1489 1492 1494 1505 1512 1517 1519 1523 1530 1536 1539 1543 1545 1548 1550 1553 1555 1557
1436 1435 1435 1435 1434 1434 1432 1429 1426 1425 1427 1428 1430 1432 1434 1436 1436 1438 1441 1448 1452 1455 1466 1474 1483 1486 1490 1493 1498 1505 1512 1517 1519 1523 1528 1533 1537 1540 1544 1547 1550 1552 1554
1434 1432 1432 1432 1431 1430 1427 1424 1421 1420 1421 1422 1423 1425 1428 1431 1433 1434 1436 1441 1446 1447 1461 1471 1481 1484 1486 1493 1498 1503 1507 1511 1515 1519 1523 1528 1531 1535 1539 1543 1546 1548 1551